This is the latest recevied weather packets stored in our database for station/object K3RUP-1. If no packets are shown the sender has not sent any weather packets the latest 10 day(s).
| Time | Temp. | Humidity | Pressure | Rain* | Wind** | Luminosity | Snow |
|---|---|---|---|---|---|---|---|
| 1777775977 | 12.22° C | 54% | 1012.7 hPa | 0 mm | - | 0 W/m² | - |
| 1777775674 | 12.22° C | 53% | 1012.9 hPa | 0 mm | - | 0 W/m² | - |
| 1777775371 | 12.22° C | 54% | 1012.8 hPa | 0 mm | - | 0 W/m² | - |
| 1777775066 | 11.67° C | 53% | 1012.8 hPa | 0 mm | - | 0 W/m² | - |
| 1777774762 | 11.67° C | 56% | 1012.7 hPa | 0 mm | - | 0 W/m² | - |
| 1777774458 | 11.11° C | 57% | 1012.8 hPa | 0 mm | - | 0 W/m² | - |
| 1777774156 | 11.11° C | 61% | 1012.6 hPa | 0 mm | - | 0 W/m² | - |
| 1777773854 | 11.11° C | 61% | 1012.7 hPa | 0 mm | - | 0 W/m² | - |
| 1777773549 | 11.11° C | 61% | 1012.6 hPa | 0 mm | - | 0 W/m² | - |
| 1777773247 | 11.11° C | 60% | 1012.5 hPa | 0 mm | - | 0 W/m² | - |
| 1777772943 | 11.11° C | 58% | 1012.7 hPa | 0 mm | - | 0 W/m² | - |
| 1777772640 | 11.67° C | 59% | 1012.5 hPa | 0 mm | - | 0 W/m² | - |
| 1777772338 | 11.67° C | 57% | 1012.8 hPa | 0 mm | - | 0 W/m² | - |
| 1777772035 | 11.67° C | 55% | 1012.7 hPa | 0 mm | - | 0 W/m² | - |
| 1777771732 | 11.67° C | 56% | 1012.4 hPa | 0 mm | - | 0 W/m² | - |
| 1777771429 | 11.67° C | 55% | 1012.4 hPa | 0 mm | - | 0 W/m² | - |
| 1777771126 | 11.67° C | 56% | 1012.7 hPa | 0 mm | - | 0 W/m² | - |
| 1777770823 | 11.67° C | 55% | 1012.3 hPa | 0 mm | - | 0 W/m² | - |
| 1777770519 | 11.67° C | 53% | 1012.5 hPa | 0 mm | - | 0 W/m² | - |
| 1777770217 | 12.22° C | 54% | 1012.1 hPa | 0 mm | - | 0 W/m² | - |
| 1777769913 | 12.22° C | 51% | 1012.4 hPa | 0 mm | - | 0 W/m² | - |
| 1777769611 | 12.78° C | 53% | 1012.1 hPa | 0 mm | - | 0 W/m² | - |
| 1777769307 | 12.78° C | 49% | 1012.1 hPa | 0 mm | - | 0 W/m² | - |
| 1777769005 | 12.78° C | 50% | 1012.1 hPa | 0 mm | - | 0 W/m² | - |
| 1777768702 | 12.78° C | 50% | 1012 hPa | 0 mm | - | 0 W/m² | - |
* Rain latest hour (hover to see other rain measurements)
** Current wind speed in m/s (hover to see current wind gust speed)